METEOR 2-6 DEB, 28987

Orbit data source: Space-Track

METEOR 2-6 DEB, 28987 is space debris in LEO originally from a launch on Tue, 09 Sep 1980 UTC launched from the Plesetsk Missile And Space Complex (PKMTR). Debris objects in space refer to the collection of defunct objects orbiting the Earth. Examples of debris include non-operational satellites, rocket bodies, and fragments generated from explosions, collisions, or faulty payload assembly.

Loading next visibility...
METEOR 2-6 DEB details
Identifier
28987, 1980-073D
Orbit
LEO
Last TLE update3 months ago
Origin
Flag of CISKVR (CIS)
ManufacturerUnknown
MissionSpacecraft
Bus & MotorUnknown
MassUnknown
Launch date (UTC)
1980-09-09 (44 years ago)
Launch vehicleUnknown
Launch site
Plesetsk Missile And Space Complex (PKMTR)
Object type
Payload
Rocket body
Debris
Shape & HBRUnknown
Radar Cross SectionSmall (<0.1 m²)

Expand to show TLE details & history

TLE from 3 months ago
0 METEOR 2-6 DEB
1 28987U 80073D   24256.56012434  .00127396  00000-0  31494-1 0  9996
2 28987  81.2089 196.2217 0028514  64.7240 295.6903 14.50948629 49886
Epoch: 2024-09-12T13:26Z
Definitive object data (Epoch: 2024-09-12T13:26:34.742Z)
Latitude-0.00005°
Longitude2.53214°
Altitude716.774 km
Speed7.502 km/s
True Right ascension13h 04m 53s
True Declination0° 00' 00"
Sunlit
Object was in daylight at TLE epoch
Visualization TLE readout
Latitude7.7216°
Longitude-108.17874°
Altitude606.105 km
Speed7.556 km/s
Apparent Right ascension03h 10m 52s
Apparent Declination-21° 36' 51"
Sunlit
Object is in daylight
Visualization observer readout
Local Sidereal Time11:10:57
Azimuth271.135° WNW
Elevation-36.378°
Doppler factor1
Orbital elements
Apogee altitude739.912 km
Perigee altitude699.434 km
Semi-major axis7,097.81 km
Eccentricity0.0028514
Inclination81.2089°
RAAN196.2217°
Arg. of periapsis64.724°
True anomaly295.3954°
Mean anomaly295.6903°
Eccentric anomaly295.54289°
Mean motion3.62958 °/min
BSTAR0.031494
Orbital period99.18 mins
Loading maneuver chart data...
Loading historical data...
Loading historical data...
Loading historical data...
Loading historical data...
Loading historical data...
Loading historical data...
Loading historical data...

METEOR 2-6 DEB Visibility forecast

Observer location: undefined°, undefined

Span
Click to sort rows by Start time (UTC) header in descending order
Start Az.
Max El. time (UTC)
Max El. Az.
Max El.
End time (UTC)
End Az.
7 mins2024-12-26 17:11:32.458Z10.014° NNE2024-12-26 17:14:32.458Z65.408° ENE32.313°2024-12-26 17:18:32.458Z145.681° SSE
4 mins2024-12-27 05:40:32.458Z123.157° SE2024-12-27 05:42:32.458Z88.246° E18.654°2024-12-27 05:44:32.458Z54.102° ENE
6 mins2024-12-27 07:17:32.458Z236.344° WSW2024-12-27 07:19:32.458Z276.199° WNW26.23°2024-12-27 07:23:32.458Z347.046° N
|